DW6119 Weather Reports


time (UTC)temp
C
wind
direction
speed
KPH
gust
KPH
rain 1hr
cm
rain 24hr
cm
rain mn
cm
humidity
%
barometer
mb
20260507064414 13 34 0.0 3.2 0.00 1.73 0.03 82 1014.6
20260507063914 13 33 0.0 1.6 0.00 1.73 0.03 84 1014.2
20260507063414 13 82 0.0 3.2 0.00 1.73 0.03 83 1014.2
20260507062916 13 252 0.0 3.2 0.00 1.75 0.03 82 1014.4
20260507062414 13 65 0.0 3.2 0.00 1.75 0.03 84 1014.2
20260507061413 12 44 0.0 1.6 0.00 1.80 0.03 86 1014.6
20260507060915 12 257 0.0 1.6 0.00 1.83 0.03 86 1014.5
20260507060413 12 4 0.0 4.8 0.00 1.85 0.03 86 1014.3
20260507055913 12 65 0.0 4.8 0.00 1.91 0.03 87 1014.2
20260507055414 12 60 1.6 4.8 0.00 1.96 0.03 87 1014.2
20260507054913 12 136 1.6 3.2 0.00 2.01 0.03 87 1014.5
20260507054413 12 45 0.0 1.6 0.00 2.03 0.03 88 1014.2
20260507053914 12 45 0.0 1.6 0.00 2.06 0.03 90 1014.2
20260507053414 12 254 0.0 1.6 0.00 2.06 0.03 89 1014.5
20260507052914 12 50 0.0 1.6 0.00 2.08 0.03 90 1014.2
20260507051914 12 74 0.0 3.2 0.00 2.11 0.03 91 1014.4
20260507051414 11 69 0.0 3.2 0.00 2.11 0.03 92 1014.2
20260507050913 11 53 1.6 3.2 0.00 2.11 0.03 93 1014.2
20260507050414 11 34 0.0 1.6 0.00 2.11 0.03 94 1014.5
20260507045914 11 72 0.0 1.6 0.00 2.11 0.03 95 1014.2
20260507045413 11 62 0.0 0.0 0.00 2.11 0.03 95 1014.2
20260507044414 11 49 0.0 1.6 0.00 2.11 0.03 95 1014.2
20260507043916 11 48 0.0 1.6 0.00 2.11 0.03 95 1014.2
20260507042913 11 218 0.0 1.6 0.00 2.11 0.03 95 1013.9
20260507042416 11 160 0.0 1.6 0.00 2.11 0.03 96 1013.9
20260507041414 11 165 0.0 1.6 0.00 2.11 0.03 96 1013.9
20260507040914 11 145 0.0 1.6 0.00 2.11 0.03 95 1013.9
20260507040414 11 174 0.0 1.6 0.00 2.11 0.03 95 1013.9
20260507035914 11 248 0.0 1.6 0.00 2.11 0.03 95 1013.9
20260507034414 11 218 0.0 0.0 0.00 2.11 0.03 95 1013.8
20260507033917 11 194 0.0 0.0 0.00 2.11 0.03 95 1013.9
20260507033416 11 135 0.0 0.0 0.00 2.11 0.03 95 1013.7
20260507032914 11 198 0.0 1.6 0.00 2.11 0.03 95 1013.5
20260507032414 11 174 0.0 1.6 0.00 2.11 0.03 95 1013.5
20260507031914 11 76 0.0 1.6 0.00 2.11 0.03 95 1013.5
20260507031414 11 73 0.0 1.6 0.00 2.11 0.03 95 1013.5
20260507030914 11 73 0.0 1.6 0.00 2.11 0.03 95 1013.5
20260507030414 11 72 0.0 1.6 0.00 2.11 0.03 95 1013.5
20260507025914 11 73 1.6 1.6 0.00 2.11 0.03 95 1013.5
20260507025416 11 250 0.0 1.6 0.00 2.11 0.03 95 1013.7
20260507024914 11 245 0.0 1.6 0.00 2.11 0.03 95 1013.9
20260507024414 11 239 0.0 1.6 0.00 2.11 0.03 95 1013.6
20260507023914 11 201 0.0 1.6 0.00 2.11 0.03 95 1013.5
20260507023415 11 87 0.0 1.6 0.00 2.11 0.03 95 1013.5
20260507022915 11 175 0.0 1.6 0.00 2.11 0.03 95 1013.5
20260507022413 11 89 0.0 1.6 0.00 2.11 0.03 95 1013.6
20260507021914 11 106 0.0 1.6 0.00 2.11 0.03 95 1013.5
20260507020414 11 188 0.0 1.6 0.00 2.11 0.03 95 1013.5
20260507015914 11 81 0.0 1.6 0.00 2.11 0.03 95 1013.5
20260507015414 11 252 0.0 1.6 0.00 2.11 0.03 95 1013.5
20260507014414 11 191 0.0 1.6 0.00 2.11 0.03 96 1013.3
20260507013914 11 189 0.0 1.6 0.00 2.11 0.03 96 1013.4
20260507013413 11 68 0.0 1.6 0.00 2.11 0.03 96 1013.5
20260507012913 11 71 0.0 3.2 0.00 2.11 0.03 96 1013.5
20260507012415 11 86 0.0 3.2 0.00 2.11 0.03 95 1013.2
20260507011914 11 243 0.0 3.2 0.00 2.11 0.03 96 1013.2
20260507011414 11 216 0.0 3.2 0.00 2.11 0.03 95 1013.2
20260507010414 11 250 1.6 3.2 0.00 2.11 0.03 95 1013.5
20260507004914 11 170 0.0 0.0 0.00 2.11 0.03 95 1013.5
20260507004414 12 102 0.0 0.0 0.00 2.11 0.03 95 1013.5
20260507003914 12 105 0.0 1.6 0.00 2.11 0.03 94 1013.5
20260507003414 12 105 0.0 1.6 0.00 2.11 0.03 94 1013.2
20260507002913 12 108 0.0 1.6 0.00 2.11 0.03 94 1013.5
20260507002414 12 184 0.0 0.0 0.00 2.11 0.03 94 1013.2
20260507001914 12 162 0.0 0.0 0.00 2.11 0.03 94 1013.3
20260507001414 12 79 0.0 1.6 0.03 2.11 0.03 94 1013.2
20260507000915 12 78 0.0 1.6 0.03 2.11 0.03 94 1013.2
20260506235915 13 69 0.0 1.6 0.03 2.11 0.03 94 1013.2
20260506235414 12 264 0.0 0.0 0.03 2.11 0.03 93 1013.2
20260506234914 13 60 0.0 0.0 0.03 2.11 0.03 94 1013.2
20260506234414 12 111 0.0 1.6 0.03 2.11 0.03 93 1013.0
20260506233914 12 141 0.0 1.6 0.03 2.11 0.03 93 1013.1
20260506233413 12 178 0.0 1.6 0.03 2.11 0.03 93 1013.2
20260506232415 12 137 0.0 1.6 0.03 2.11 0.03 93 1013.2
20260506231915 13 94 0.0 1.6 0.03 2.11 0.03 93 1013.2
20260506231414 13 97 0.0 1.6 0.00 2.08 0.00 93 1012.9
20260506230914 12 213 0.0 1.6 0.00 2.08 0.00 93 1013.1
20260506225914 13 276 0.0 1.6 0.00 2.08 0.00 93 1013.1
20260506225415 13 254 0.0 3.2 0.00 2.08 0.00 93 1013.0
20260506224916 13 72 0.0 3.2 0.00 2.08 0.00 92 1013.2
20260506224414 13 84 0.0 3.2 0.00 2.08 0.00 92 1013.1
20260506223914 13 69 1.6 3.2 0.00 2.08 0.00 93 1013.2
20260506223414 13 70 1.6 1.6 0.00 2.08 0.00 93 1013.2
20260506222914 13 50 0.0 3.2 0.00 2.08 0.00 93 1012.9
20260506222414 13 227 0.0 3.2 0.00 2.08 0.00 93 1013.1
20260506221914 13 239 1.6 3.2 0.00 2.08 0.00 93 1012.9
20260506221414 13 200 0.0 4.8 0.00 2.08 0.00 93 1012.9
20260506220415 13 63 0.0 4.8 0.00 2.08 0.00 93 1012.9
20260506215916 13 168 0.0 1.6 0.00 2.08 2.08 93 1012.9
20260506215414 13 216 0.0 1.6 0.00 2.08 2.08 93 1012.9
20260506214915 13 78 0.0 1.6 0.00 2.08 2.08 93 1012.9
20260506213914 13 63 0.0 1.6 0.00 2.08 2.08 92 1012.9
20260506213414 13 207 0.0 1.6 0.00 2.08 2.08 91 1012.9
20260506212914 13 249 0.0 3.2 0.00 2.08 2.08 91 1012.9
20260506212414 13 248 1.6 3.2 0.00 2.08 2.08 93 1012.9
20260506211913 13 203 0.0 3.2 0.00 2.08 2.08 94 1012.9
20260506211413 13 159 1.6 3.2 0.00 2.08 2.08 95 1012.5
20260506210414 13 245 0.0 1.6 0.00 2.08 2.08 95 1012.6
20260506203414 13 162 0.0 1.6 0.00 2.08 2.08 94 1012.5
20260506202914 13 209 0.0 1.6 0.00 2.08 2.08 94 1012.5
20260506202414 13 101 0.0 1.6 0.00 2.08 2.08 94 1012.5
20260506201915 13 218 0.0 1.6 0.00 2.08 2.08 95 1012.2
20260506201413 13 82 0.0 1.6 0.00 2.08 2.08 95 1012.2
20260506200915 13 64 1.6 1.6 0.00 2.08 2.08 95 1012.2
20260506200414 13 245 0.0 1.6 0.00 2.08 2.08 94 1011.9
20260506195914 13 124 0.0 1.6 0.00 2.08 2.08 94 1011.9
20260506195414 13 84 0.0 1.6 0.00 2.08 2.08 94 1011.9
20260506193914 13 206 0.0 1.6 0.00 2.08 2.08 93 1011.5
20260506193414 14 207 0.0 1.6 0.00 2.08 2.08 93 1011.5
20260506192414 14 103 0.0 3.2 0.00 2.08 2.08 94 1011.5
20260506191915 14 71 1.6 3.2 0.00 2.08 2.08 93 1011.4
20260506190913 14 237 1.6 1.6 0.00 2.08 2.08 93 1011.2
20260506190414 14 174 0.0 1.6 0.00 2.08 2.08 92 1010.8
20260506185914 14 152 0.0 1.6 0.00 2.08 2.08 92 1011.2
20260506185414 14 166 0.0 1.6 0.00 2.08 2.08 92 1010.8
20260506184915 14 133 0.0 1.6 0.00 2.08 2.08 92 1011.0
20260506184414 15 119 0.0 0.0 0.00 2.08 2.08 91 1011.2
20260506183914 15 186 0.0 4.8 0.00 2.08 2.08 90 1010.9
20260506183414 15 135 0.0 4.8 0.00 2.08 2.08 89 1010.5
20260506182415 14 150 0.0 1.6 0.00 2.08 2.08 92 1010.5
20260506181914 15 117 0.0 1.6 0.00 2.08 2.08 92 1010.6
20260506180916 14 73 0.0 3.2 0.00 2.08 2.08 91 1010.5
20260506180415 14 108 0.0 1.6 0.00 2.08 2.08 93 1010.5
20260506175914 15 166 0.0 1.6 0.00 2.08 2.08 93 1010.5
20260506175414 15 167 0.0 0.0 0.00 2.08 2.08 93 1010.2
20260506174414 15 169 0.0 1.6 0.00 2.08 2.08 92 1010.2
20260506173914 15 155 0.0 1.6 0.00 2.08 2.08 92 1009.8
20260506172914 15 155 0.0 3.2 0.00 2.08 2.08 93 1009.8
20260506172414 15 166 0.0 3.2 0.00 2.08 2.08 92 1009.8
20260506171914 15 220 1.6 3.2 0.00 2.08 2.08 93 1009.9
20260506171414 15 183 0.0 1.6 0.00 2.08 2.08 92 1009.8
20260506170415 15 149 0.0 1.6 0.00 2.08 2.08 92 1009.8
20260506165914 15 182 0.0 1.6 0.00 2.08 2.08 92 1009.8
20260506165414 15 152 0.0 1.6 0.00 2.08 2.08 92 1009.8
20260506164914 15 143 0.0 1.6 0.00 2.08 2.08 92 1009.8
20260506163915 15 136 0.0 1.6 0.00 2.08 2.08 91 1009.8
20260506163414 15 151 0.0 1.6 0.00 2.08 2.08 91 1009.6
20260506162914 15 196 0.0 1.6 0.00 2.08 2.08 91 1009.8
20260506162415 15 189 0.0 1.6 0.00 2.08 2.08 90 1009.8
20260506161914 15 160 0.0 1.6 0.00 2.08 2.08 90 1009.8
20260506161414 15 197 0.0 1.6 0.00 2.11 2.08 89 1009.8
20260506160415 15 186 0.0 1.6 0.00 2.11 2.08 89 1009.8
20260506155915 16 177 0.0 1.6 0.00 2.13 2.08 88 1009.8
20260506155414 16 201 0.0 1.6 0.00 2.13 2.08 88 1009.8
20260506154914 16 67 1.6 3.2 0.00 2.13 2.08 88 1009.8
20260506153916 16 165 0.0 1.6 0.00 2.16 2.08 85 1009.8
20260506152916 16 173 0.0 3.2 0.00 2.16 2.08 85 1009.8
20260506152415 16 73 1.6 1.6 0.00 2.16 2.08 86 1009.8
20260506151914 16 140 0.0 3.2 0.00 2.16 2.08 84 1010.2
20260506151415 16 71 0.0 3.2 0.00 2.16 2.08 81 1010.2
20260506150916 16 74 0.0 1.6 0.00 2.16 2.08 83 1010.2
20260506150414 16 254 0.0 3.2 0.00 2.16 2.08 80 1010.3
20260506145914 16 203 0.0 3.2 0.00 2.16 2.08 81 1010.4
20260506145414 16 259 0.0 1.6 0.00 2.16 2.08 82 1010.2
20260506144914 16 33 0.0 1.6 0.00 2.16 2.08 82 1010.3
20260506144414 16 35 0.0 1.6 0.00 2.16 2.08 82 1010.2
20260506143414 16 64 0.0 1.6 0.00 2.16 2.08 84 1010.5
20260506142914 15 170 0.0 3.2 0.00 2.16 2.08 84 1010.5
20260506142415 15 34 0.0 3.2 0.00 2.16 2.08 84 1010.8
20260506141914 15 256 1.6 3.2 0.00 2.16 2.08 84 1010.8
20260506141414 15 260 1.6 1.6 0.00 2.16 2.08 87 1010.9
20260506140414 15 141 0.0 1.6 0.15 2.16 2.08 86 1011.5
20260506135915 15 53 0.0 3.2 0.23 2.16 2.08 88 1011.2
20260506134415 15 69 0.0 4.8 0.33 2.16 2.08 92 1011.7
20260506133414 14 61 1.6 4.8 0.48 2.16 2.08 94 1011.6
20260506132415 14 45 0.0 1.6 0.66 2.16 2.08 95 1011.6
20260506131414 13 40 1.6 1.6 0.74 2.16 2.08 95 1011.9
20260506130915 13 247 0.0 3.2 0.66 2.06 1.98 94 1012.2
20260506130414 13 65 0.0 8.0 0.66 2.01 1.93 94 1012.5
20260506125916 13 65 1.6 8.0 0.84 1.93 1.85 94 1012.2
20260506125414 14 67 3.2 8.0 1.07 1.88 1.80 93 1012.2
20260506124415 13 253 1.6 3.2 1.19 1.83 1.75 93 1012.2
20260506123914 13 158 0.0 3.2 1.14 1.78 1.70 93 1011.9
20260506122415 13 157 1.6 8.0 0.86 1.50 1.42 90 1011.9
20260506121415 14 244 3.2 12.9 0.79 1.42 1.35 88 1011.9
20260506120914 15 274 1.6 11.3 0.76 1.40 1.32 87 1011.9
20260506115915 16 185 3.2 11.3 0.46 1.09 1.02 89 1011.5
20260506115417 16 249 3.2 4.8 0.18 0.81 0.74 86 1010.8
20260506114914 16 2 0.0 3.2 0.00 0.66 0.56 80 1010.3
20260506114414 16 66 0.0 3.2 0.00 0.66 0.56 82 1010.0
20260506113914 16 67 3.2 3.2 0.00 0.66 0.56 80 1009.8
20260506113416 16 265 1.6 8.0 0.00 0.66 0.56 82 1009.9
20260506112914 16 256 0.0 8.0 0.00 0.66 0.56 82 1010.2
20260506112414 16 251 1.6 8.0 0.00 0.66 0.56 82 1010.2
20260506111914 16 253 1.6 4.8 0.00 0.66 0.56 81 1010.2
20260506111414 17 255 3.2 4.8 0.00 0.66 0.56 79 1010.5
20260506110915 17 264 0.0 1.6 0.03 0.69 0.56 76 1010.5
20260506110415 17 278 0.0 4.8 0.03 0.69 0.56 75 1010.5
20260506105915 16 303 1.6 4.8 0.03 0.69 0.56 74 1011.1
20260506105415 16 45 0.0 4.8 0.03 0.69 0.56 78 1010.8
20260506104914 16 37 0.0 4.8 0.03 0.69 0.56 82 1011.2
20260506104415 16 55 0.0 4.8 0.03 0.69 0.56 80 1011.2
20260506103416 16 48 1.6 4.8 0.03 0.71 0.56 82 1011.5
20260506102915 16 301 0.0 1.6 0.03 0.71 0.56 85 1011.5
20260506101916 15 32 1.6 1.6 0.03 0.76 0.56 88 1011.5
20260506101415 15 182 0.0 1.6 0.03 0.76 0.56 88 1011.5
20260506100915 15 18 0.0 3.2 0.00 0.76 0.53 90 1011.8
20260506095915 15 76 1.6 3.2 0.10 0.79 0.53 91 1011.9
20260506095415 15 82 0.0 3.2 0.13 0.79 0.53 90 1011.9
20260506094917 15 67 1.6 3.2 0.13 0.79 0.53 89 1011.5
20260506094414 15 60 0.0 1.6 0.13 0.79 0.53 88 1011.9
20260506093414 15 50 0.0 1.6 0.13 0.81 0.53 90 1011.9
20260506092914 15 54 0.0 1.6 0.13 0.81 0.53 91 1011.9
20260506092415 15 54 0.0 1.6 0.13 0.81 0.53 92 1011.9
20260506091415 14 193 0.0 3.2 0.13 0.81 0.53 93 1011.9
20260506090915 14 232 1.6 3.2 0.13 0.81 0.53 93 1011.9
20260506090414 14 91 0.0 3.2 0.10 0.81 0.51 92 1012.0
20260506085915 14 247 1.6 3.2 0.03 0.74 0.43 92 1011.9
20260506085414 14 233 1.6 1.6 0.00 0.71 0.41 92 1011.8
20260506084415 14 80 0.0 3.2 0.00 0.74 0.41 91 1011.9
20260506082914 14 67 0.0 1.6 0.00 0.76 0.41 91 1011.5
20260506082414 14 37 0.0 3.2 0.00 0.76 0.41 92 1011.9
20260506081915 14 49 0.0 3.2 0.00 0.79 0.41 92 1011.7
20260506081415 13 66 0.0 3.2 0.00 0.79 0.41 92 1011.9
20260506080914 14 76 0.0 3.2 0.00 0.79 0.41 94 1011.9
20260506073415 13 59 0.0 3.2 0.03 0.81 0.41 95 1011.9
20260506072915 13 107 0.0 1.6 0.05 0.81 0.41 95 1011.9
20260506072414 13 161 0.0 1.6 0.05 0.81 0.41 95 1012.0
20260506071416 13 161 0.0 0.0 0.10 0.81 0.41 96 1012.2
20260506070916 13 161 0.0 1.6 0.13 0.81 0.41 96 1011.9